SCOUT B DEB, 29279

Orbit data source: Space-Track

SCOUT B DEB, 29279 is space debris in LEO originally from a launch on Thu, 08 Aug 1968 UTC launched from the Air Force Western Test Range (AFWTR). Debris objects in space refer to the collection of defunct objects orbiting the Earth. Examples of debris include non-operational satellites, rocket bodies, and fragments generated from explosions, collisions, or faulty payload assembly.

Loading next visibility...
Identifier
29279, 1968-066N
Orbit
LEO
Country
Flag of USUS
Related business
Manufacturer
Unknown
Mission
Spacecraft
Bus & Motor
Unknown
Mass
Unknown
Launch date (UTC)
1968-08-08 (58 years ago)
Launch vehicle
Unknown
Launch site
Air Force Western Test Range (AFWTR)
Object type
Payload
Rocket body
Debris
Shape & HBR
Unknown shape, 0.1 m
Radar Cross Section
Small (<0.1 m²)

Expand to show TLE details & history
Last TLE update: 4 months ago

TLE from 4 months ago
0 SCOUT B DEB
1 29279U 68066N   25357.55279547  .00004584  00000-0  21912-2 0  9999
2 29279  80.5920 101.4136 0509926 353.2881   6.1599 13.67334712 27503
Epoch: 2025-12-23T13:16Z
TLE epoch observation values (Epoch: 2025-12-23T13:16:01.528Z)
Latitude
0.00001°
Longitude
170.07234°
Altitude
637.633 km
Speed
7.728 km/s
True Right ascension
06h 45m 39s
True Declination
0° 00' 00"
Sunlit
Object was in full shadow at epoch
Visualization orbit readout
Latitude
Unknown
Longitude
Unknown
Altitude
Unknown
Speed
Unknown
Apparent Right ascension
Unknown
Apparent Declination
Unknown
Sunlit
N/A
Visualization observer readout
Local Sidereal Time
13:03:02
Azimuth
Unknown
Elevation
Unknown
Doppler factor
Unknown
Orbital elements
Apogee altitude
1,382.965 km
Perigee altitude
629.851 km
Semi-major axis
7,384.545 km
Eccentricity
0.05099
Inclination
80.592°
RAAN
101.4136°
Arg. of periapsis
353.2881°
True anomaly
6.82919°
Mean anomaly
6.1599°
Eccentric anomaly
6.49014°
Mean motion
3.42025 °/min
Orbital period
105.26 mins
BSTAR
0.0021912
Loading maneuver chart data...
Computing Atmospheric mass density...
Loading historical data...
Loading historical data...
Loading historical data...
Loading historical data...
Loading historical data...
Loading historical data...
Loading historical data...

Documentation

Showing up to 5 results
|